Location: Fluertsh�userhof
(48.7537°N, 10.3850°E)
Time: 06:25:34
(UTC+00:00)

USA 234 - Pass Details

Date: 18 September 2020
Orbit: 1102 x 1106 km, 123.0° (Epoch: 16 October)

Event Time Altitude Azimuth Distance (km) Brightness Sun altitude
Rises 18:33:14 0° 57° (ENE) 3,927 5.8 -12.0°
Reaches altitude 10° 18:36:02 10° 67° (ENE) 2,967 5.1 -12.5°
Maximum altitude 18:41:49 33° 130° (SE) 1,777 3.9 -13.4°
Drops below altitude 10° 18:47:34 10° 192° (SSW) 2,956 5.4 -14.3°
Sets 18:50:20 0° 201° (SSW) 3,911 6.2 -14.7°
